sat.trackr.live / text

‹ back to catalog

MKA-PN 1

NORAD 38711 · 2012-039E

PAYLOAD ACTIVE UNKNOWN

§ Identity

Operator
Country
CIS
Launch date
2012-07-22
Launch site
TYMSC
Launch vehicle
Mass (kg)
RCS (m²)
1.08

External: N2YO · Heavens-Above · Gunter

§ Orbital elements

Epoch: 2026-09-20T03:48:53.273088Z

Period
101.02 min
Inclination
98.9818°
Eccentricity
0.0010477
Mean motion
14.25454080 rev/d
Perigee alt
799.4 km
Apogee alt
814.5 km
Semi-major
7,185.1 km
B*
5.3575e-5
RAAN
22.3953°
Arg perigee
252.8535°
Mean anomaly
107.1497°
Rev number
73,637

§ Raw data

MKA-PN 11 38711U 12039E   26263.15894992  .00000080  00000+0  53575-4 0  99972 38711  98.9818  22.3953 0010477 252.8535 107.1497 14.25454080736376

JSON: /api/v1/satellites/38711 · /tle

For live sub-satellite position, see the globe view (requires WebGL).

§ Visibility from observer

Set your observer location to see the next 7 days of passes ≥ 10°. The values pass through the URL so the page stays shareable.

No JS? Fill the form by hand. The geolocation button needs JavaScript.